Hourly Weather Dori Yagha

Today, 17 January, Sunday

Time Temperature Precipitation Wind Pressure Humidity
00:00 +24°C° 0 mm 3 mps 736 mmHg 15%
01:00 +24°C° 0 mm 3 mps 735 mmHg 16%
02:00 +22°C° 0 mm 3 mps 735 mmHg 17%
03:00 +21°C° 0 mm 3 mps 735 mmHg 17%
04:00 +21°C° 0 mm 3 mps 735 mmHg 18%
05:00 +20°C° 0 mm 3 mps 735 mmHg 19%
06:00 +20°C° 0 mm 3 mps 736 mmHg 20%
07:00 +22°C° 0 mm 3 mps 736 mmHg 18%
08:00 +26°C° 0 mm 4 mps 737 mmHg 15%
09:00 +28°C° 0 mm 4 mps 737 mmHg 13%
10:00 +32°C° 0 mm 5 mps 737 mmHg 11%
11:00 +34°C° 0 mm 5 mps 737 mmHg 10%
12:00 +36°C° 0 mm 6 mps 736 mmHg 8%
13:00 +38°C° 0 mm 6 mps 736 mmHg 8%
14:00 +38°C° 0 mm 6 mps 735 mmHg 8%
15:00 +39°C° 0 mm 5 mps 734 mmHg 7%
16:00 +35°C° 0 mm 5 mps 734 mmHg 9%
17:00 +33°C° 0 mm 4 mps 734 mmHg 10%
18:00 +30°C° 0 mm 3 mps 734 mmHg 12%
19:00 +29°C° 0 mm 3 mps 735 mmHg 13%
20:00 +28°C° 0 mm 3 mps 735 mmHg 13%
21:00 +27°C° 0 mm 3 mps 736 mmHg 14%
22:00 +26°C° 0 mm 3 mps 736 mmHg 14%
23:00 +25°C° 0 mm 3 mps 736 mmHg 15%

Tomorrow, 18 January, Monday

Time Temperature Precipitation Wind Pressure Humidity
00:00 +25°C° 0 mm 3 mps 736 mmHg 15%
01:00 +24°C° 0 mm 3 mps 736 mmHg 15%
02:00 +24°C° 0 mm 3 mps 735 mmHg 15%
03:00 +24°C° 0 mm 3 mps 735 mmHg 15%
04:00 +22°C° 0 mm 4 mps 735 mmHg 15%
05:00 +22°C° 0 mm 4 mps 735 mmHg 15%
06:00 +21°C° 0 mm 4 mps 736 mmHg 16%
07:00 +23°C° 0 mm 5 mps 736 mmHg 14%
08:00 +26°C° 0 mm 6 mps 737 mmHg 12%
09:00 +29°C° 0 mm 7 mps 737 mmHg 10%
10:00 +32°C° 0 mm 7 mps 737 mmHg 10%
11:00 +34°C° 0 mm 7 mps 737 mmHg 9%
12:00 +38°C° 0 mm 7 mps 737 mmHg 9%
13:00 +38°C° 0 mm 6 mps 736 mmHg 8%
14:00 +39°C° 0 mm 6 mps 735 mmHg 8%
15:00 +39°C° 0 mm 5 mps 735 mmHg 7%
16:00 +36°C° 0 mm 5 mps 735 mmHg 9%
17:00 +34°C° 0 mm 4 mps 735 mmHg 10%
18:00 +30°C° 0 mm 4 mps 735 mmHg 12%
19:00 +29°C° 0 mm 4 mps 735 mmHg 13%
20:00 +28°C° 0 mm 4 mps 736 mmHg 14%
21:00 +26°C° 0 mm 4 mps 736 mmHg 15%
22:00 +26°C° 0 mm 4 mps 736 mmHg 16%
23:00 +25°C° 0 mm 4 mps 737 mmHg 17%

Day after tomorrow, 19 January, Tuesday

Time Temperature Precipitation Wind Pressure Humidity
00:00 +23°C° 0 mm 4 mps 737 mmHg 18%
01:00 +23°C° 0 mm 4 mps 736 mmHg 18%
02:00 +22°C° 0 mm 4 mps 736 mmHg 19%
03:00 +22°C° 0 mm 4 mps 736 mmHg 19%
04:00 +21°C° 0 mm 4 mps 736 mmHg 20%
05:00 +21°C° 0 mm 4 mps 736 mmHg 21%
06:00 +20°C° 0 mm 5 mps 737 mmHg 21%
07:00 +22°C° 0 mm 5 mps 737 mmHg 19%
08:00 +24°C° 0 mm 6 mps 738 mmHg 17%
09:00 +27°C° 0 mm 7 mps 738 mmHg 14%
10:00 +30°C° 0 mm 7 mps 738 mmHg 13%
11:00 +34°C° 0 mm 7 mps 738 mmHg 11%
12:00 +36°C° 0 mm 7 mps 737 mmHg 9%
13:00 +38°C° 0 mm 7 mps 737 mmHg 9%
14:00 +38°C° 0 mm 7 mps 736 mmHg 8%
15:00 +39°C° 0 mm 6 mps 735 mmHg 8%
16:00 +35°C° 0 mm 5 mps 735 mmHg 9%
17:00 +33°C° 0 mm 4 mps 735 mmHg 11%
18:00 +30°C° 0 mm 4 mps 735 mmHg 12%
19:00 +29°C° 0 mm 4 mps 736 mmHg 13%
20:00 +27°C° 0 mm 3 mps 736 mmHg 14%
21:00 +26°C° 0 mm 3 mps 737 mmHg 15%
22:00 +25°C° 0 mm 3 mps 737 mmHg 16%
23:00 +24°C° 0 mm 3 mps 737 mmHg 17%

20 January, Wednesday

Time Temperature Precipitation Wind Pressure Humidity
00:00 +22°C° 0 mm 3 mps 737 mmHg 17%
01:00 +22°C° 0 mm 4 mps 737 mmHg 18%
02:00 +21°C° 0 mm 4 mps 737 mmHg 18%
03:00 +21°C° 0 mm 4 mps 737 mmHg 18%
04:00 +20°C° 0 mm 4 mps 737 mmHg 18%
05:00 +20°C° 0 mm 4 mps 737 mmHg 19%
06:00 +19°C° 0 mm 5 mps 737 mmHg 19%
07:00 +21°C° 0 mm 5 mps 738 mmHg 17%
08:00 +23°C° 0 mm 6 mps 738 mmHg 15%
09:00 +26°C° 0 mm 7 mps 739 mmHg 14%
10:00 +29°C° 0 mm 7 mps 738 mmHg 12%
11:00 +33°C° 0 mm 7 mps 738 mmHg 10%
12:00 +35°C° 0 mm 7 mps 738 mmHg 9%
13:00 +36°C° 0 mm 7 mps 737 mmHg 8%
14:00 +38°C° 0 mm 6 mps 736 mmHg 8%
15:00 +38°C° 0 mm 6 mps 735 mmHg 7%
16:00 +35°C° 0 mm 5 mps 735 mmHg 8%
17:00 +33°C° 0 mm 5 mps 735 mmHg 10%
18:00 +29°C° 0 mm 4 mps 735 mmHg 11%
19:00 +28°C° 0 mm 4 mps 736 mmHg 12%
20:00 +27°C° 0 mm 4 mps 737 mmHg 13%
21:00 +25°C° 0 mm 4 mps 737 mmHg 14%
22:00 +23°C° 0 mm 4 mps 737 mmHg 14%
23:00 +23°C° 0 mm 4 mps 737 mmHg 15%

21 January, Thursday

Time Temperature Precipitation Wind Pressure Humidity
00:00 +22°C° 0 mm 4 mps 737 mmHg 16%
01:00 +21°C° 0 mm 4 mps 737 mmHg 16%
02:00 +21°C° 0 mm 4 mps 737 mmHg 17%
03:00 +20°C° 0 mm 4 mps 737 mmHg 17%
04:00 +19°C° 0 mm 4 mps 737 mmHg 18%
05:00 +19°C° 0 mm 4 mps 737 mmHg 19%
06:00 +18°C° 0 mm 4 mps 737 mmHg 20%
07:00 +20°C° 0 mm 5 mps 738 mmHg 18%
08:00 +23°C° 0 mm 6 mps 738 mmHg 16%
09:00 +26°C° 0 mm 7 mps 739 mmHg 14%
10:00 +29°C° 0 mm 7 mps 739 mmHg 13%
11:00 +32°C° 0 mm 7 mps 738 mmHg 11%
12:00 +35°C° 0 mm 7 mps 738 mmHg 9%
13:00 +35°C° 0 mm 6 mps 737 mmHg 8%
14:00 +36°C° 0 mm 6 mps 737 mmHg 8%
15:00 +38°C° 0 mm 6 mps 736 mmHg 7%
16:00 +34°C° 0 mm 5 mps 736 mmHg 8%
17:00 +32°C° 0 mm 5 mps 736 mmHg 9%
18:00 +29°C° 0 mm 4 mps 736 mmHg 10%
19:00 +27°C° 0 mm 4 mps 737 mmHg 11%
20:00 +26°C° 0 mm 4 mps 737 mmHg 12%
21:00 +25°C° 0 mm 4 mps 738 mmHg 13%
22:00 +23°C° 0 mm 4 mps 738 mmHg 13%
23:00 +22°C° 0 mm 4 mps 738 mmHg 14%

22 January, Friday

Time Temperature Precipitation Wind Pressure Humidity
00:00 +22°C° 0 mm 4 mps 738 mmHg 14%
01:00 +21°C° 0 mm 4 mps 737 mmHg 15%
02:00 +20°C° 0 mm 4 mps 737 mmHg 15%
03:00 +20°C° 0 mm 4 mps 737 mmHg 16%
04:00 +19°C° 0 mm 4 mps 737 mmHg 17%
05:00 +19°C° 0 mm 4 mps 737 mmHg 18%
06:00 +18°C° 0 mm 4 mps 737 mmHg 19%
07:00 +20°C° 0 mm 5 mps 738 mmHg 17%
08:00 +23°C° 0 mm 6 mps 738 mmHg 15%
09:00 +26°C° 0 mm 7 mps 739 mmHg 13%
10:00 +28°C° 0 mm 7 mps 738 mmHg 12%
11:00 +32°C° 0 mm 7 mps 738 mmHg 10%
12:00 +34°C° 0 mm 6 mps 738 mmHg 9%
13:00 +35°C° 0 mm 6 mps 737 mmHg 8%
14:00 +36°C° 0 mm 5 mps 736 mmHg 8%
15:00 +37°C° 0 mm 5 mps 736 mmHg 7%
16:00 +34°C° 0 mm 4 mps 736 mmHg 8%
17:00 +32°C° 0 mm 4 mps 736 mmHg 10%
18:00 +29°C° 0 mm 3 mps 736 mmHg 11%
19:00 +28°C° 0 mm 4 mps 736 mmHg 11%
20:00 +26°C° 0 mm 4 mps 737 mmHg 12%
21:00 +25°C° 0 mm 4 mps 737 mmHg 12%
22:00 +23°C° 0 mm 4 mps 737 mmHg 13%
23:00 +23°C° 0 mm 4 mps 737 mmHg 13%
Show more

We Need Your Consent

Meteoprog and our Service Providers may store and access personal data such as cookies, device identifiers or other similar technologies on your device and process such data to personalise content and ads, as well as provide social media features and to analyse the traffic.

  • Store and/or access information on your device

    Cookies, device identifiers or other information can be stored or accessed on your device for the purposes indicated above.

  • Personalised ads and content, ad and content measurement, audience insights, and products development

    Ads and content can be personalised based on a profile. More data can be added to better personalise ads and content. Ad and content performance can be measured. Insights about the audience who saw the ads and content can be derived. Such data can be used to develop or improve user’s experience, systems and software.

By clicking ‘I Agree’ you will allow the use of indicated cookies, device identifiers, web beacons or other similar technologies. Your settings can be changed in the browser on your device.

For certain purposes, legitimate interests may be relied on, rather than consent. You can read more about this in our Privacy and Cookie Policy.